• In Czech Republic
  • List of Countries
  • For 7 days
  • Water Temperature
  • Satellite Maps
  • Weather Map
  • Weather Widgets
  • user-avatar
    Login

    Hourly Weather Batina

    Today, 22 October, Sunday

    Time Temperature Precipitation Wind Pressure Humidity
    00:00 +13°C° 0 mm 0 mps 675 mmHg 80%
    01:00 +13°C° 0 mm 0 mps 675 mmHg 81%
    02:00 +13°C° 0 mm 0 mps 674 mmHg 81%
    03:00 +12°C° 0 mm 0 mps 674 mmHg 82%
    04:00 +12°C° 0 mm 0 mps 674 mmHg 82%
    05:00 +12°C° 0 mm 0 mps 674 mmHg 83%
    06:00 +12°C° 0 mm 0 mps 674 mmHg 83%
    07:00 +13°C° 0 mm 0 mps 675 mmHg 75%
    08:00 +16°C° 0 mm 1 mps 675 mmHg 67%
    09:00 +18°C° 0 mm 1 mps 676 mmHg 60%
    10:00 +19°C° 0 mm 1 mps 676 mmHg 56%
    11:00 +19°C° 0 mm 2 mps 676 mmHg 52%
    12:00 +20°C° 0 mm 2 mps 676 mmHg 49%
    13:00 +20°C° 0 mm 2 mps 676 mmHg 48%
    14:00 +20°C° 0 mm 3 mps 675 mmHg 47%
    15:00 +21°C° 0 mm 3 mps 675 mmHg 46%
    16:00 +20°C° 0 mm 3 mps 675 mmHg 50%
    17:00 +19°C° 0 mm 3 mps 675 mmHg 53%
    18:00 +18°C° 0 mm 3 mps 675 mmHg 57%
    19:00 +18°C° 0 mm 3 mps 675 mmHg 62%
    20:00 +17°C° 0 mm 2 mps 675 mmHg 67%
    21:00 +16°C° 0 mm 2 mps 675 mmHg 72%
    22:00 +16°C° 0 mm 2 mps 675 mmHg 76%
    23:00 +15°C° 0 mm 2 mps 675 mmHg 79%

    Tomorrow, 23 October, Monday

    Time Temperature Precipitation Wind Pressure Humidity
    00:00 +15°C° 0 mm 2 mps 675 mmHg 82%
    01:00 +14°C° 0 mm 2 mps 675 mmHg 83%
    02:00 +14°C° 0 mm 2 mps 674 mmHg 84%
    03:00 +14°C° 0 mm 2 mps 674 mmHg 84%
    04:00 +14°C° 0 mm 2 mps 674 mmHg 85%
    05:00 +13°C° 0 mm 2 mps 674 mmHg 85%
    06:00 +13°C° 0 mm 2 mps 674 mmHg 85%
    07:00 +14°C° 0 mm 2 mps 674 mmHg 79%
    08:00 +15°C° 0 mm 2 mps 675 mmHg 72%
    09:00 +16°C° 0 mm 2 mps 676 mmHg 65%
    10:00 +17°C° 0 mm 3 mps 676 mmHg 61%
    11:00 +17°C° 0 mm 3 mps 675 mmHg 58%
    12:00 +18°C° 0 mm 3 mps 675 mmHg 54%
    13:00 +18°C° 0 mm 4 mps 675 mmHg 53%
    14:00 +18°C° 0 mm 4 mps 675 mmHg 51%
    15:00 +17°C° 0 mm 5 mps 675 mmHg 50%
    16:00 +17°C° 0 mm 4 mps 675 mmHg 54%
    17:00 +15°C° 0 mm 4 mps 675 mmHg 58%
    18:00 +14°C° 0 mm 4 mps 674 mmHg 62%
    19:00 +13°C° 0 mm 3 mps 675 mmHg 66%
    20:00 +13°C° 0 mm 3 mps 675 mmHg 70%
    21:00 +12°C° 0 mm 3 mps 675 mmHg 73%
    22:00 +12°C° 0 mm 3 mps 675 mmHg 75%
    23:00 +13°C° 0 mm 2 mps 674 mmHg 77%

    Day after tomorrow, 24 October, Tuesday

    Time Temperature Precipitation Wind Pressure Humidity
    00:00 +12°C° 0 mm 2 mps 674 mmHg 78%
    01:00 +12°C° 0 mm 2 mps 674 mmHg 78%
    02:00 +12°C° 0 mm 2 mps 674 mmHg 78%
    03:00 +12°C° 0 mm 2 mps 674 mmHg 78%
    04:00 +10°C° 0 mm 2 mps 674 mmHg 78%
    05:00 +10°C° 0 mm 2 mps 674 mmHg 78%
    06:00 +10°C° 0 mm 2 mps 674 mmHg 78%
    07:00 +12°C° 0 mm 2 mps 674 mmHg 72%
    08:00 +13°C° 0 mm 2 mps 675 mmHg 66%
    09:00 +15°C° 0 mm 2 mps 676 mmHg 60%
    10:00 +16°C° 0 mm 2 mps 676 mmHg 56%
    11:00 +16°C° 0 mm 2 mps 676 mmHg 53%
    12:00 +17°C° 0 mm 3 mps 676 mmHg 49%
    13:00 +18°C° 0 mm 3 mps 675 mmHg 48%
    14:00 +18°C° 0 mm 3 mps 675 mmHg 46%
    15:00 +18°C° 0 mm 3 mps 675 mmHg 45%
    16:00 +17°C° 0 mm 3 mps 675 mmHg 50%
    17:00 +17°C° 0 mm 3 mps 675 mmHg 55%
    18:00 +16°C° 0 mm 3 mps 675 mmHg 60%
    19:00 +15°C° 0 mm 2 mps 675 mmHg 65%
    20:00 +14°C° 0 mm 2 mps 675 mmHg 69%
    21:00 +14°C° 0 mm 2 mps 675 mmHg 73%
    22:00 +13°C° 0 mm 1 mps 675 mmHg 75%
    23:00 +13°C° 0 mm 1 mps 675 mmHg 77%

    25 October, Wednesday

    Time Temperature Precipitation Wind Pressure Humidity
    00:00 +13°C° 0 mm 1 mps 675 mmHg 79%
    01:00 +12°C° 0 mm 1 mps 674 mmHg 79%
    02:00 +12°C° 0 mm 1 mps 674 mmHg 80%
    03:00 +12°C° 0 mm 1 mps 674 mmHg 80%
    04:00 +11°C° 0 mm 1 mps 674 mmHg 80%
    05:00 +11°C° 0 mm 1 mps 674 mmHg 80%
    06:00 +11°C° 0 mm 1 mps 674 mmHg 81%
    07:00 +12°C° 0 mm 1 mps 675 mmHg 73%
    08:00 +14°C° 0 mm 2 mps 676 mmHg 65%
    09:00 +15°C° 0 mm 2 mps 677 mmHg 58%
    10:00 +17°C° 0 mm 2 mps 677 mmHg 51%
    11:00 +18°C° 0 mm 2 mps 677 mmHg 45%
    12:00 +19°C° 0 mm 2 mps 677 mmHg 38%
    13:00 +19°C° 0 mm 2 mps 677 mmHg 36%
    14:00 +19°C° 0 mm 3 mps 677 mmHg 34%
    15:00 +20°C° 0 mm 3 mps 677 mmHg 32%
    16:00 +19°C° 0 mm 3 mps 677 mmHg 37%
    17:00 +18°C° 0 mm 2 mps 677 mmHg 42%
    18:00 +17°C° 0 mm 2 mps 677 mmHg 46%
    19:00 +16°C° 0 mm 2 mps 677 mmHg 50%
    20:00 +15°C° 0 mm 2 mps 677 mmHg 54%
    21:00 +14°C° 0 mm 1 mps 677 mmHg 58%
    22:00 +14°C° 0 mm 1 mps 677 mmHg 60%
    23:00 +13°C° 0 mm 1 mps 677 mmHg 62%

    26 October, Thursday

    Time Temperature Precipitation Wind Pressure Humidity
    00:00 +13°C° 0 mm 1 mps 677 mmHg 64%
    01:00 +12°C° 0 mm 1 mps 677 mmHg 62%
    02:00 +12°C° 0 mm 1 mps 677 mmHg 59%
    03:00 +12°C° 0 mm 1 mps 676 mmHg 57%
    04:00 +11°C° 0 mm 1 mps 676 mmHg 54%
    05:00 +11°C° 0 mm 1 mps 676 mmHg 51%
    06:00 +11°C° 0 mm 1 mps 677 mmHg 49%
    07:00 +13°C° 0 mm 1 mps 677 mmHg 41%
    08:00 +15°C° 0 mm 1 mps 678 mmHg 33%
    09:00 +19°C° 0 mm 1 mps 679 mmHg 25%
    10:00 +20°C° 0 mm 1 mps 679 mmHg 22%
    11:00 +21°C° 0 mm 1 mps 679 mmHg 19%
    12:00 +22°C° 0 mm 1 mps 679 mmHg 17%
    13:00 +21°C° 0 mm 2 mps 679 mmHg 16%
    14:00 +21°C° 0 mm 2 mps 679 mmHg 16%
    15:00 +21°C° 0 mm 2 mps 679 mmHg 16%
    16:00 +20°C° 0 mm 2 mps 679 mmHg 20%
    17:00 +19°C° 0 mm 1 mps 678 mmHg 24%
    18:00 +18°C° 0 mm 1 mps 678 mmHg 28%
    19:00 +16°C° 0 mm 1 mps 678 mmHg 30%
    20:00 +15°C° 0 mm 1 mps 678 mmHg 32%
    21:00 +14°C° 0 mm 0 mps 678 mmHg 34%
    22:00 +13°C° 0 mm 0 mps 678 mmHg 34%
    23:00 +13°C° 0 mm 0 mps 678 mmHg 34%

    27 October, Friday

    Time Temperature Precipitation Wind Pressure Humidity
    00:00 +12°C° 0 mm 0 mps 677 mmHg 35%
    01:00 +12°C° 0 mm 0 mps 677 mmHg 35%
    02:00 +12°C° 0 mm 0 mps 677 mmHg 35%
    03:00 +11°C° 0 mm 0 mps 677 mmHg 35%
    04:00 +11°C° 0 mm 0 mps 677 mmHg 35%
    05:00 +11°C° 0 mm 0 mps 677 mmHg 35%
    06:00 +11°C° 0 mm 0 mps 677 mmHg 35%
    07:00 +13°C° 0 mm 0 mps 677 mmHg 30%
    08:00 +18°C° 0 mm 1 mps 678 mmHg 25%
    09:00 +20°C° 0 mm 1 mps 679 mmHg 21%
    10:00 +21°C° 0 mm 1 mps 679 mmHg 20%
    11:00 +21°C° 0 mm 2 mps 679 mmHg 19%
    12:00 +23°C° 0 mm 2 mps 679 mmHg 18%
    13:00 +23°C° 0 mm 2 mps 679 mmHg 18%
    14:00 +23°C° 0 mm 2 mps 678 mmHg 18%
    15:00 +22°C° 0 mm 3 mps 678 mmHg 18%
    16:00 +21°C° 0 mm 2 mps 677 mmHg 22%
    17:00 +19°C° 0 mm 2 mps 677 mmHg 26%
    18:00 +19°C° 0 mm 1 mps 677 mmHg 30%
    19:00 +18°C° 0 mm 1 mps 677 mmHg 32%
    20:00 +16°C° 0 mm 1 mps 676 mmHg 34%
    21:00 +16°C° 0 mm 1 mps 676 mmHg 36%
    22:00 +15°C° 0 mm 1 mps 676 mmHg 37%
    23:00 +15°C° 0 mm 1 mps 675 mmHg 38%
    Show more